Location: Newark
(34.6283°N, 36.0776°E)
Time: 21:08:37
(UTC+00:00)

Tiros 1 despin weight - Pass Details

Date: 22 September 2019
Orbit: 594 x 643 km, 48.2° (Epoch: 15 October)

Event Time Altitude Azimuth Distance (km) Brightness Sun altitude
Rises 11:15:20 0° 292° (WNW) 2,878 ? 47.6°
Reaches altitude 10° 11:18:33 10° 315° (NW) 1,962 ? 47.1°
Maximum altitude 11:21:11 15° 351° (N) 1,641 ? 46.8°
Drops below altitude 10° 11:23:49 10° 28° (NNE) 1,947 ? 46.4°
Sets 11:26:59 0° 51° (NE) 2,841 ? 45.9°
